Weather History for Berlin, NH

Change the Weather History Date:

Monday, January 27, 1997

  Actual Average Record
Temperature  
Mean Temperature 4 °F -  
Max Temperature 18 °F 22 °F 37 °F (2002)
Min Temperature -11 °F 0 °F -26 °F (2005)
Degree Days  
Heating Degree Days 62    
Moisture  
Dew Point -8 °F    
Average Humidity 60    
Maximum Humidity 82    
Minimum Humidity 28    
Precipitation  
Precipitation 0.00 in - - ()
Sea Level Pressure  
Sea Level Pressure 30.62 in    
Wind  
Wind Speed 4 mph (SSE)    
Max Wind Speed 23 mph    
Max Gust Speed 28 mph    
Visibility 9 miles    
Events Snow    
Averages and records for this station are not official NWS values.
T = Trace of Precipitation, MM = Missing Value Source: NWS Daily Summary

Daily Weather History Graph

Daily Weather History Graph

Search for Another Location

Airport:

Trip Planner

Search our weather history database for the weather conditions in past years. The results will help you decide how hot, cold, wet, or windy it might be!

Date:

Astronomy

Jan. 27, 1997 Rise Set
Actual Time 7:08 AM EST 4:46 PM EST
Civil Twilight 6:37 AM EST 5:18 PM EST
Nautical Twilight 6:02 AM EST 5:53 PM EST
Astronomical Twilight 5:27 AM EST 6:27 PM EST
Moon 8:56 PM EST (1/27) 8:51 AM EST (1/27)
Length of Visible Light 10h 41m
Length of Day
9h 38m
Waning Gibbous, 86% of the Moon is Illuminated
Jan 27
Waning Gibbous
Jan 31
Last Quarter
Feb 7
New
Feb 14
First Quarter
Feb 22
Full

Hourly Weather History & Observations

Time (EST) Temp. Windchill Dew Point Humidity Pressure Visibility Wind Dir Wind Speed Gust Speed Precip Events Conditions
12:52 AM -4.0 °F -14.6 °F -15.0 °F 59% 30.61 in 10.0 mi Variable 4.6 mph - N/A   Clear
1:52 AM -6.0 °F - -14.1 °F 68% 30.64 in 10.0 mi Calm Calm - N/A   Clear
2:52 AM -9.0 °F - -14.1 °F 79% 30.67 in 10.0 mi Calm Calm - N/A   Clear
3:52 AM -8.0 °F - -15.0 °F 71% 30.69 in 10.0 mi Calm Calm - N/A   Clear
4:52 AM -9.9 °F - -14.1 °F 82% 30.72 in 10.0 mi Calm Calm - N/A   Clear
5:52 AM -11.0 °F - -16.1 °F 78% 30.74 in 10.0 mi Calm Calm - N/A   Clear
6:52 AM -11.9 °F - -17.0 °F 78% 30.76 in 10.0 mi Calm Calm - N/A   Clear
7:52 AM -11.9 °F - -17.0 °F 78% 30.77 in 9.0 mi Calm Calm - N/A   Clear
8:52 AM -9.0 °F -18.2 °F -15.0 °F 75% 30.77 in 10.0 mi Variable 3.5 mph - N/A   Clear
9:52 AM -2.9 °F - -16.1 °F 54% 30.76 in 10.0 mi Calm Calm - N/A   Clear
10:52 AM 1.9 °F -9.2 °F -15.0 °F 45% 30.74 in 10.0 mi WNW 5.8 mph - N/A   Clear
11:52 AM 7.0 °F - -13.0 °F 40% 30.69 in 10.0 mi Calm Calm - N/A   Clear
12:52 PM 12.0 °F - -14.1 °F 30% 30.64 in 10.0 mi Calm Calm - N/A   Clear
1:52 PM 15.1 °F - -13.0 °F 28% 30.60 in 10.0 mi Calm Calm - N/A   Clear
2:52 PM 18.0 °F - -9.9 °F 29% 30.58 in 10.0 mi Calm Calm - N/A   Clear
3:52 PM 16.0 °F 4.4 °F -9.0 °F 32% 30.59 in 10.0 mi SSE 9.2 mph - N/A   Clear
4:52 PM 14.0 °F 1.2 °F -2.9 °F 47% 30.58 in 10.0 mi SSE 10.4 mph - N/A   Clear
5:52 PM 15.1 °F 2.5 °F -0.0 °F 51% 30.57 in 10.0 mi SSE 10.4 mph - N/A   Mostly Cloudy
6:52 PM 15.1 °F 2.5 °F 1.9 °F 56% 30.55 in 10.0 mi SSE 10.4 mph - N/A   Overcast
7:52 PM 15.1 °F 1.1 °F 5.0 °F 64% 30.53 in 10.0 mi SSE 12.7 mph - N/A   Overcast
8:52 PM 16.0 °F 0.6 °F 8.1 °F 71% 30.49 in 3.0 mi SSE 16.1 mph 20.7 mph 0.00 in Snow Light Snow
9:52 PM 16.0 °F -2.1 °F 9.0 °F 74% 30.43 in 1.2 mi SSE 23.0 mph 27.6 mph 0.00 in Snow Light Snow
10:52 PM 16.0 °F 5.3 °F 10.0 °F 77% 30.39 in 5.0 mi SSE 8.1 mph - 0.00 in Snow Light Snow
11:52 PM 18.0 °F 6.1 °F 12.0 °F 78% 30.32 in 1.8 mi SSE 10.4 mph - 0.00 in Snow Light Snow